| time (UTC) | temp C | wind direction | speed KPH | gust KPH | rain 1hr cm | rain 24hr cm | rain mn cm | humidity % | barometer mb |
| 20260906194108 | 9 | 63 | 3.2 | 11.3 | 0.00 | 0.00 | 0.00 | 93 | 969.4 |
| 20260906193608 | 9 | 88 | 3.2 | 11.3 | 0.00 | 0.00 | 0.00 | 93 | 969.4 |
| 20260906193107 | 9 | 204 | 4.8 | 16.1 | 0.00 | 0.00 | 0.00 | 93 | 969.4 |
| 20260906192607 | 9 | 126 | 6.4 | 16.1 | 0.00 | 0.00 | 0.00 | 92 | 969.5 |
| 20260906192107 | 9 | 230 | 6.4 | 16.1 | 0.00 | 0.00 | 0.00 | 92 | 969.3 |
| 20260906191607 | 9 | 233 | 4.8 | 16.1 | 0.00 | 0.00 | 0.00 | 92 | 969.3 |
| 20260906191107 | 9 | 271 | 3.2 | 9.7 | 0.00 | 0.00 | 0.00 | 92 | 969.3 |
| 20260906190607 | 10 | 202 | 3.2 | 9.7 | 0.00 | 0.00 | 0.00 | 91 | 969.4 |
| 20260906190107 | 10 | 203 | 3.2 | 9.7 | 0.00 | 0.00 | 0.00 | 91 | 969.5 |
| 20260906185607 | 10 | 246 | 4.8 | 12.9 | 0.00 | 0.00 | 0.00 | 90 | 969.4 |
| 20260906185107 | 10 | 75 | 6.4 | 14.5 | 0.00 | 0.00 | 0.00 | 90 | 969.7 |
| 20260906184607 | 10 | 206 | 6.4 | 14.5 | 0.00 | 0.00 | 0.00 | 89 | 969.6 |
| 20260906184107 | 10 | 247 | 6.4 | 17.7 | 0.00 | 0.00 | 0.00 | 89 | 969.5 |
| 20260906183607 | 10 | 124 | 8.0 | 17.7 | 0.00 | 0.00 | 0.00 | 88 | 969.6 |
| 20260906183107 | 10 | 193 | 8.0 | 22.5 | 0.00 | 0.00 | 0.00 | 88 | 969.5 |
| 20260906182607 | 10 | 232 | 8.0 | 22.5 | 0.00 | 0.00 | 0.00 | 88 | 969.6 |
| 20260906182107 | 10 | 250 | 6.4 | 17.7 | 0.00 | 0.00 | 0.00 | 88 | 969.5 |
| 20260906181607 | 10 | 163 | 8.0 | 17.7 | 0.00 | 0.00 | 0.00 | 88 | 969.6 |
| 20260906181106 | 10 | 205 | 8.0 | 17.7 | 0.00 | 0.00 | 0.00 | 87 | 969.4 |
| 20260906180606 | 10 | 224 | 4.8 | 17.7 | 0.00 | 0.00 | 0.00 | 86 | 969.5 |
| 20260906180106 | 10 | 229 | 3.2 | 16.1 | 0.00 | 0.00 | 0.00 | 86 | 969.4 |
| 20260906175606 | 11 | 182 | 3.2 | 11.3 | 0.00 | 0.00 | 0.00 | 85 | 969.4 |
| 20260906175106 | 11 | 235 | 3.2 | 8.0 | 0.00 | 0.00 | 0.00 | 86 | 969.3 |
| 20260906174606 | 11 | 235 | 3.2 | 8.0 | 0.00 | 0.00 | 0.00 | 85 | 969.2 |
| 20260906174106 | 11 | 230 | 3.2 | 9.7 | 0.00 | 0.00 | 0.00 | 84 | 969.2 |
| 20260906173606 | 11 | 201 | 3.2 | 17.7 | 0.00 | 0.00 | 0.00 | 83 | 969.2 |
| 20260906173106 | 11 | 227 | 4.8 | 17.7 | 0.00 | 0.00 | 0.00 | 82 | 969.2 |
| 20260906172606 | 11 | 120 | 6.4 | 19.3 | 0.00 | 0.00 | 0.00 | 82 | 969.2 |
| 20260906172106 | 11 | 251 | 8.0 | 19.3 | 0.00 | 0.00 | 0.00 | 81 | 969.2 |
| 20260906171606 | 12 | 147 | 8.0 | 19.3 | 0.00 | 0.00 | 0.00 | 81 | 969.2 |
| 20260906171106 | 12 | 234 | 8.0 | 25.7 | 0.00 | 0.00 | 0.00 | 82 | 969.3 |
| 20260906170606 | 12 | 202 | 6.4 | 25.7 | 0.00 | 0.00 | 0.00 | 81 | 969.1 |
| 20260906170106 | 11 | 234 | 6.4 | 16.1 | 0.00 | 0.00 | 0.00 | 82 | 969.3 |
| 20260906165606 | 11 | 131 | 4.8 | 14.5 | 0.00 | 0.00 | 0.00 | 83 | 969.2 |
| 20260906165106 | 11 | 182 | 3.2 | 11.3 | 0.00 | 0.00 | 0.00 | 85 | 969.2 |
| 20260906164606 | 11 | 235 | 4.8 | 12.9 | 0.00 | 0.00 | 0.00 | 86 | 969.2 |
| 20260906164106 | 11 | 111 | 6.4 | 14.5 | 0.00 | 0.00 | 0.00 | 86 | 969.2 |
| 20260906163605 | 11 | 218 | 6.4 | 14.5 | 0.00 | 0.00 | 0.00 | 85 | 969.2 |
| 20260906163105 | 11 | 218 | 6.4 | 16.1 | 0.00 | 0.00 | 0.00 | 85 | 969.2 |
| 20260906162605 | 11 | 218 | 6.4 | 16.1 | 0.00 | 0.00 | 0.00 | 83 | 969.2 |
| 20260906162105 | 11 | 238 | 6.4 | 24.1 | 0.00 | 0.00 | 0.00 | 83 | 969.2 |
| 20260906161605 | 11 | 208 | 8.0 | 24.1 | 0.00 | 0.00 | 0.00 | 82 | 969.3 |
| 20260906161105 | 12 | 217 | 8.0 | 20.9 | 0.00 | 0.00 | 0.00 | 81 | 969.3 |
| 20260906160605 | 12 | 203 | 8.0 | 20.9 | 0.00 | 0.00 | 0.00 | 81 | 969.3 |
| 20260906160105 | 12 | 262 | 6.4 | 19.3 | 0.00 | 0.00 | 0.00 | 81 | 969.3 |
| 20260906155605 | 12 | 214 | 8.0 | 25.7 | 0.00 | 0.00 | 0.00 | 81 | 969.2 |
| 20260906155105 | 12 | 236 | 8.0 | 25.7 | 0.00 | 0.00 | 0.00 | 81 | 969.1 |
| 20260906154605 | 12 | 216 | 8.0 | 25.7 | 0.00 | 0.00 | 0.00 | 83 | 969.0 |
| 20260906154105 | 12 | 235 | 8.0 | 24.1 | 0.00 | 0.00 | 0.00 | 82 | 969.0 |
| 20260906153605 | 12 | 223 | 8.0 | 24.1 | 0.00 | 0.00 | 0.00 | 78 | 968.9 |
| 20260906153105 | 13 | 209 | 6.4 | 17.7 | 0.00 | 0.00 | 0.00 | 79 | 968.8 |
| 20260906152605 | 13 | 189 | 8.0 | 32.2 | 0.00 | 0.00 | 0.00 | 78 | 968.8 |
| 20260906152105 | 13 | 143 | 9.7 | 32.2 | 0.00 | 0.00 | 0.00 | 78 | 968.7 |
| 20260906151605 | 13 | 228 | 9.7 | 30.6 | 0.00 | 0.00 | 0.00 | 76 | 968.7 |
| 20260906151104 | 13 | 145 | 9.7 | 33.8 | 0.00 | 0.00 | 0.00 | 77 | 968.7 |
| 20260906150604 | 13 | 47 | 8.0 | 33.8 | 0.00 | 0.00 | 0.00 | 76 | 968.6 |
| 20260906150104 | 13 | 106 | 8.0 | 30.6 | 0.00 | 0.00 | 0.00 | 76 | 968.7 |
| 20260906145604 | 13 | 83 | 8.0 | 30.6 | 0.00 | 0.00 | 0.00 | 75 | 968.6 |
| 20260906145104 | 13 | 123 | 8.0 | 30.6 | 0.00 | 0.00 | 0.00 | 75 | 968.6 |
| 20260906144604 | 13 | 119 | 8.0 | 25.7 | 0.00 | 0.00 | 0.00 | 76 | 968.6 |
| 20260906144104 | 13 | 238 | 9.7 | 25.7 | 0.00 | 0.00 | 0.00 | 74 | 968.6 |
| 20260906143604 | 13 | 258 | 9.7 | 32.2 | 0.00 | 0.00 | 0.00 | 77 | 968.5 |
| 20260906143104 | 13 | 228 | 8.0 | 32.2 | 0.00 | 0.00 | 0.00 | 76 | 968.5 |
| 20260906142604 | 13 | 114 | 8.0 | 27.4 | 0.00 | 0.00 | 0.00 | 77 | 968.4 |
| 20260906142104 | 13 | 51 | 9.7 | 25.7 | 0.00 | 0.00 | 0.00 | 80 | 968.5 |
| 20260906141604 | 13 | 230 | 9.7 | 24.1 | 0.00 | 0.00 | 0.00 | 80 | 968.6 |
| 20260906141104 | 12 | 237 | 9.7 | 24.1 | 0.00 | 0.00 | 0.00 | 84 | 968.4 |
| 20260906140603 | 12 | 249 | 9.7 | 20.9 | 0.00 | 0.00 | 0.00 | 85 | 968.5 |
| 20260906140103 | 13 | 126 | 9.7 | 20.9 | 0.00 | 0.00 | 0.00 | 82 | 968.5 |
| 20260906135603 | 12 | 236 | 9.7 | 20.9 | 0.00 | 0.00 | 0.00 | 88 | 968.4 |
| 20260906135103 | 12 | 272 | 11.3 | 24.1 | 0.00 | 0.00 | 0.00 | 90 | 968.5 |
| 20260906134603 | 12 | 256 | 12.9 | 27.4 | 0.00 | 0.00 | 0.00 | 88 | 968.5 |
| 20260906134103 | 13 | 235 | 9.7 | 27.4 | 0.00 | 0.00 | 0.00 | 80 | 968.3 |
| 20260906133603 | 15 | 196 | 8.0 | 24.1 | 0.00 | 0.00 | 0.00 | 70 | 967.9 |
| 20260906133033 | 16 | 111 | 8.0 | 24.1 | 0.00 | 0.00 | 0.00 | 68 | 968.1 |
| 20260906132533 | 15 | 128 | 8.0 | 27.4 | 0.00 | 0.00 | 0.00 | 72 | 968.0 |
| 20260906132033 | 15 | 115 | 8.0 | 27.4 | 0.00 | 0.00 | 0.00 | 68 | 968.0 |
| 20260906131533 | 15 | 136 | 8.0 | 24.1 | 0.00 | 0.00 | 0.00 | 70 | 968.1 |
| 20260906131033 | 15 | 215 | 9.7 | 27.4 | 0.00 | 0.00 | 0.00 | 72 | 968.1 |
| 20260906130533 | 15 | 155 | 9.7 | 27.4 | 0.00 | 0.00 | 0.00 | 77 | 967.9 |
| 20260906130033 | 13 | 214 | 8.0 | 27.4 | 0.00 | 0.00 | 0.00 | 79 | 967.9 |
| 20260906125532 | 14 | 125 | 6.4 | 19.3 | 0.00 | 0.00 | 0.00 | 81 | 968.0 |
| 20260906125032 | 13 | 128 | 6.4 | 20.9 | 0.00 | 0.00 | 0.00 | 88 | 968.1 |
| 20260906124532 | 12 | 108 | 8.0 | 29.0 | 0.00 | 0.00 | 0.00 | 90 | 968.0 |
| 20260906124032 | 12 | 77 | 9.7 | 29.0 | 0.00 | 0.00 | 0.00 | 90 | 967.9 |
| 20260906123532 | 12 | 89 | 9.7 | 37.0 | 0.00 | 0.00 | 0.00 | 88 | 967.8 |
| 20260906123032 | 13 | 354 | 9.7 | 37.0 | 0.00 | 0.00 | 0.00 | 82 | 967.8 |
| 20260906122532 | 15 | 19 | 8.0 | 33.8 | 0.00 | 0.00 | 0.00 | 71 | 967.6 |
| 20260906122032 | 15 | 169 | 8.0 | 24.1 | 0.00 | 0.00 | 0.00 | 69 | 967.5 |
| 20260906121532 | 16 | 164 | 6.4 | 20.9 | 0.00 | 0.00 | 0.00 | 70 | 967.7 |
| 20260906121032 | 16 | 197 | 6.4 | 20.9 | 0.00 | 0.00 | 0.00 | 69 | 967.8 |
| 20260906120532 | 15 | 87 | 6.4 | 20.9 | 0.00 | 0.00 | 0.00 | 73 | 967.7 |
| 20260906120032 | 14 | 116 | 6.4 | 22.5 | 0.00 | 0.00 | 0.00 | 77 | 967.8 |
| 20260906115532 | 13 | 42 | 6.4 | 22.5 | 0.00 | 0.00 | 0.00 | 75 | 967.7 |
| 20260906115032 | 14 | 84 | 6.4 | 25.7 | 0.00 | 0.00 | 0.00 | 75 | 967.7 |
| 20260906114532 | 13 | 71 | 6.4 | 25.7 | 0.00 | 0.00 | 0.00 | 76 | 967.7 |
| 20260906114031 | 13 | 187 | 8.0 | 32.2 | 0.00 | 0.00 | 0.00 | 74 | 967.5 |
| 20260906113531 | 14 | 75 | 8.0 | 32.2 | 0.00 | 0.00 | 0.00 | 75 | 967.8 |
| 20260906113031 | 15 | 120 | 8.0 | 27.4 | 0.00 | 0.00 | 0.00 | 74 | 967.5 |
| 20260906112531 | 15 | 116 | 8.0 | 19.3 | 0.00 | 0.00 | 0.00 | 73 | 967.7 |
| 20260906112031 | 13 | 170 | 6.4 | 19.3 | 0.00 | 0.00 | 0.00 | 76 | 967.7 |
| 20260906111531 | 14 | 122 | 6.4 | 17.7 | 0.00 | 0.00 | 0.00 | 75 | 967.6 |
| 20260906111031 | 14 | 158 | 6.4 | 24.1 | 0.00 | 0.00 | 0.00 | 78 | 967.5 |
| 20260906110531 | 13 | 100 | 8.0 | 27.4 | 0.00 | 0.00 | 0.00 | 79 | 967.3 |
| 20260906110031 | 13 | 207 | 8.0 | 27.4 | 0.00 | 0.00 | 0.00 | 79 | 967.3 |
| 20260906105531 | 13 | 251 | 8.0 | 24.1 | 0.00 | 0.00 | 0.00 | 81 | 967.4 |
| 20260906105031 | 13 | 154 | 9.7 | 27.4 | 0.00 | 0.00 | 0.00 | 79 | 967.3 |
| 20260906104531 | 14 | 153 | 9.7 | 27.4 | 0.00 | 0.00 | 0.00 | 77 | 967.2 |
| 20260906104031 | 14 | 61 | 8.0 | 27.4 | 0.00 | 0.00 | 0.00 | 75 | 967.1 |
| 20260906103531 | 15 | 92 | 6.4 | 20.9 | 0.00 | 0.00 | 0.00 | 72 | 967.2 |
| 20260906103031 | 15 | 145 | 6.4 | 20.9 | 0.00 | 0.00 | 0.00 | 76 | 967.1 |
| 20260906102530 | 16 | 139 | 4.8 | 22.5 | 0.00 | 0.00 | 0.00 | 75 | 967.1 |
| 20260906102030 | 16 | 132 | 4.8 | 22.5 | 0.00 | 0.00 | 0.00 | 78 | 967.1 |
| 20260906101530 | 15 | 126 | 4.8 | 20.9 | 0.00 | 0.00 | 0.00 | 82 | 967.2 |
| 20260906101030 | 15 | 155 | 6.4 | 16.1 | 0.00 | 0.00 | 0.00 | 81 | 967.0 |
| 20260906100530 | 14 | 125 | 4.8 | 17.7 | 0.00 | 0.00 | 0.00 | 84 | 967.1 |
| 20260906100030 | 13 | 118 | 4.8 | 17.7 | 0.00 | 0.00 | 0.00 | 91 | 967.1 |
| 20260906095530 | 12 | 56 | 4.8 | 17.7 | 0.00 | 0.00 | 0.00 | 97 | 967.1 |
| 20260906095030 | 11 | 159 | 4.8 | 24.1 | 0.00 | 0.00 | 0.00 | 97 | 967.1 |
| 20260906094530 | 11 | 126 | 8.0 | 24.1 | 0.00 | 0.00 | 0.00 | 96 | 967.0 |
| 20260906094030 | 12 | 103 | 8.0 | 24.1 | 0.00 | 0.00 | 0.00 | 91 | 967.0 |
| 20260906093530 | 13 | 169 | 8.0 | 20.9 | 0.00 | 0.00 | 0.00 | 80 | 967.0 |
| 20260906093030 | 13 | 236 | 8.0 | 19.3 | 0.00 | 0.00 | 0.00 | 75 | 967.0 |
| 20260906092530 | 14 | 188 | 6.4 | 17.7 | 0.00 | 0.00 | 0.00 | 77 | 966.9 |
| 20260906092030 | 13 | 203 | 6.4 | 17.7 | 0.00 | 0.00 | 0.00 | 77 | 966.7 |
| 20260906091529 | 13 | 213 | 6.4 | 17.7 | 0.00 | 0.00 | 0.00 | 78 | 966.8 |
| 20260906091029 | 13 | 136 | 6.4 | 17.7 | 0.00 | 0.00 | 0.00 | 77 | 967.0 |
| 20260906090529 | 13 | 111 | 6.4 | 20.9 | 0.00 | 0.00 | 0.00 | 78 | 966.9 |
| 20260906090029 | 13 | 245 | 6.4 | 20.9 | 0.00 | 0.00 | 0.00 | 77 | 966.8 |
| 20260906085529 | 13 | 113 | 6.4 | 20.9 | 0.00 | 0.00 | 0.00 | 77 | 966.9 |
| 20260906085029 | 13 | 185 | 6.4 | 20.9 | 0.00 | 0.00 | 0.00 | 77 | 966.9 |
| 20260906084529 | 14 | 184 | 6.4 | 25.7 | 0.00 | 0.00 | 0.00 | 76 | 966.9 |
| 20260906084029 | 15 | 173 | 6.4 | 25.7 | 0.00 | 0.00 | 0.00 | 77 | 966.8 |
| 20260906083529 | 15 | 144 | 6.4 | 17.7 | 0.00 | 0.00 | 0.00 | 79 | 966.9 |
| 20260906083029 | 14 | 132 | 6.4 | 17.7 | 0.00 | 0.00 | 0.00 | 80 | 966.8 |
| 20260906082529 | 13 | 119 | 6.4 | 20.9 | 0.00 | 0.00 | 0.00 | 82 | 966.7 |
| 20260906082029 | 13 | 168 | 8.0 | 22.5 | 0.00 | 0.00 | 0.00 | 80 | 966.6 |
| 20260906081528 | 13 | 143 | 6.4 | 22.5 | 0.00 | 0.00 | 0.00 | 81 | 966.6 |
| 20260906081028 | 13 | 202 | 6.4 | 22.5 | 0.00 | 0.00 | 0.00 | 81 | 966.6 |
| 20260906080528 | 13 | 139 | 8.0 | 24.1 | 0.00 | 0.00 | 0.00 | 82 | 966.4 |
| 20260906080028 | 13 | 150 | 8.0 | 24.1 | 0.00 | 0.00 | 0.00 | 83 | 966.4 |
| 20260906075528 | 13 | 59 | 6.4 | 20.9 | 0.00 | 0.00 | 0.00 | 82 | 966.5 |
| 20260906075028 | 13 | 101 | 6.4 | 19.3 | 0.00 | 0.00 | 0.00 | 83 | 966.5 |
| 20260906074528 | 12 | 89 | 4.8 | 17.7 | 0.00 | 0.00 | 0.00 | 84 | 966.5 |
| 20260906074028 | 12 | 217 | 4.8 | 17.7 | 0.00 | 0.00 | 0.00 | 86 | 966.5 |
| 20260906073528 | 12 | 166 | 4.8 | 14.5 | 0.00 | 0.00 | 0.00 | 85 | 966.5 |
| 20260906073028 | 12 | 129 | 4.8 | 17.7 | 0.00 | 0.00 | 0.00 | 87 | 966.5 |
| 20260906072528 | 12 | 64 | 4.8 | 17.7 | 0.00 | 0.00 | 0.00 | 87 | 966.4 |
| 20260906072028 | 11 | 103 | 4.8 | 16.1 | 0.00 | 0.00 | 0.00 | 87 | 966.3 |
| 20260906071528 | 11 | 292 | 4.8 | 16.1 | 0.00 | 0.00 | 0.00 | 87 | 966.3 |
| 20260906071028 | 11 | 69 | 4.8 | 17.7 | 0.00 | 0.00 | 0.00 | 88 | 966.3 |
| 20260906070528 | 11 | 103 | 6.4 | 30.6 | 0.00 | 0.00 | 0.00 | 89 | 966.2 |
| 20260906070027 | 11 | 141 | 6.4 | 30.6 | 0.00 | 0.00 | 0.00 | 87 | 966.3 |
| 20260906065527 | 12 | 168 | 6.4 | 17.7 | 0.00 | 0.00 | 0.00 | 86 | 966.1 |
| 20260906065027 | 12 | 204 | 6.4 | 17.7 | 0.00 | 0.00 | 0.00 | 85 | 966.1 |
| 20260906064527 | 12 | 73 | 6.4 | 19.3 | 0.00 | 0.00 | 0.00 | 85 | 966.0 |
| 20260906064027 | 12 | 158 | 6.4 | 19.3 | 0.00 | 0.00 | 0.00 | 82 | 965.9 |
| 20260906063527 | 14 | 161 | 6.4 | 19.3 | 0.00 | 0.00 | 0.00 | 81 | 966.0 |
| 20260906063027 | 13 | 209 | 6.4 | 25.7 | 0.00 | 0.00 | 0.00 | 81 | 965.9 |
| 20260906062527 | 13 | 114 | 6.4 | 25.7 | 0.00 | 0.00 | 0.00 | 84 | 965.8 |
| 20260906062027 | 13 | 110 | 6.4 | 17.7 | 0.00 | 0.00 | 0.00 | 83 | 965.9 |
| 20260906061527 | 13 | 176 | 4.8 | 16.1 | 0.00 | 0.00 | 0.00 | 83 | 965.8 |
| 20260906061027 | 13 | 149 | 4.8 | 17.7 | 0.00 | 0.00 | 0.00 | 84 | 965.7 |
| 20260906060527 | 13 | 93 | 4.8 | 17.7 | 0.00 | 0.00 | 0.00 | 84 | 965.7 |
| 20260906060027 | 13 | 84 | 4.8 | 16.1 | 0.00 | 0.00 | 0.00 | 85 | 965.6 |
| 20260906055527 | 12 | 268 | 4.8 | 14.5 | 0.00 | 0.00 | 0.00 | 86 | 965.5 |
| 20260906055027 | 11 | 126 | 4.8 | 22.5 | 0.00 | 0.00 | 0.00 | 89 | 965.5 |
| 20260906054526 | 12 | 237 | 4.8 | 22.5 | 0.00 | 0.00 | 0.00 | 87 | 965.4 |
| 20260906054026 | 12 | 87 | 4.8 | 12.9 | 0.00 | 0.00 | 0.00 | 88 | 965.4 |
| 20260906053526 | 11 | 220 | 4.8 | 12.9 | 0.00 | 0.00 | 0.00 | 89 | 965.4 |
| 20260906053026 | 11 | 93 | 4.8 | 14.5 | 0.00 | 0.00 | 0.00 | 92 | 965.4 |
| 20260906052526 | 10 | 178 | 6.4 | 16.1 | 0.00 | 0.00 | 0.00 | 95 | 965.4 |
| 20260906052026 | 9 | 144 | 6.4 | 22.5 | 0.00 | 0.00 | 0.00 | 97 | 965.4 |
| 20260906051526 | 10 | 195 | 8.0 | 22.5 | 0.00 | 0.00 | 0.00 | 95 | 965.5 |
| 20260906051026 | 10 | 235 | 8.0 | 20.9 | 0.00 | 0.00 | 0.00 | 94 | 965.6 |
| 20260906050526 | 10 | 172 | 6.4 | 17.7 | 0.00 | 0.00 | 0.00 | 94 | 965.4 |
| 20260906050026 | 10 | 159 | 6.4 | 19.3 | 0.00 | 0.00 | 0.00 | 96 | 965.4 |
| 20260906045526 | 10 | 105 | 6.4 | 22.5 | 0.00 | 0.00 | 0.00 | 98 | 965.3 |
| 20260906045026 | 8 | 157 | 6.4 | 22.5 | 0.00 | 0.00 | 0.00 | 99 | 965.3 |
| 20260906044526 | 8 | 269 | 6.4 | 17.7 | 0.00 | 0.00 | 0.00 | 99 | 965.2 |
| 20260906044026 | 8 | 223 | 4.8 | 16.1 | 0.00 | 0.00 | 0.00 | 10 | 965.2 |
| 20260906043526 | 8 | 196 | 3.2 | 16.1 | 0.00 | 0.00 | 0.00 | 10 | 965.3 |
| 20260906043025 | 8 | 62 | 3.2 | 14.5 | 0.00 | 0.00 | 0.00 | 10 | 965.3 |
| 20260906042525 | 8 | 216 | 3.2 | 14.5 | 0.00 | 0.00 | 0.00 | 10 | 965.2 |
| 20260906042025 | 8 | 61 | 3.2 | 11.3 | 0.00 | 0.00 | 0.00 | 10 | 965.3 |
| 20260906041525 | 8 | 74 | 3.2 | 9.7 | 0.00 | 0.00 | 0.00 | 10 | 965.2 |
| 20260906041025 | 8 | 322 | 3.2 | 8.0 | 0.00 | 0.00 | 0.00 | 10 | 965.1 |
| 20260906040525 | 8 | 211 | 3.2 | 16.1 | 0.00 | 0.00 | 0.00 | 10 | 964.9 |
| 20260906040025 | 8 | 121 | 4.8 | 16.1 | 0.00 | 0.00 | 0.00 | 10 | 964.9 |
| 20260906035525 | 8 | 42 | 4.8 | 16.1 | 0.00 | 0.00 | 0.00 | 10 | 964.8 |
| 20260906034955 | 8 | 147 | 4.8 | 16.1 | 0.00 | 0.00 | 0.00 | 10 | 964.8 |
| 20260906034455 | 8 | 154 | 4.8 | 16.1 | 0.00 | 0.00 | 0.00 | 10 | 964.7 |
| 20260906033955 | 8 | 192 | 4.8 | 16.1 | 0.00 | 0.00 | 0.00 | 10 | 964.7 |
| 20260906033455 | 8 | 26 | 4.8 | 14.5 | 0.00 | 0.00 | 0.00 | 10 | 964.8 |
| 20260906032955 | 8 | 106 | 4.8 | 20.9 | 0.00 | 0.00 | 0.00 | 10 | 964.7 |
| 20260906032455 | 8 | 267 | 4.8 | 20.9 | 0.00 | 0.00 | 0.00 | 10 | 964.7 |
| 20260906031955 | 8 | 99 | 4.8 | 16.1 | 0.00 | 0.00 | 0.00 | 10 | 964.7 |
| 20260906031455 | 8 | 205 | 4.8 | 16.1 | 0.00 | 0.00 | 0.00 | 10 | 964.8 |
| 20260906030955 | 8 | 75 | 4.8 | 14.5 | 0.00 | 0.00 | 0.00 | 10 | 964.8 |
| 20260906030455 | 7 | 84 | 4.8 | 14.5 | 0.00 | 0.00 | 0.00 | 10 | 964.8 |
| 20260906025954 | 8 | 45 | 4.8 | 12.9 | 0.00 | 0.00 | 0.00 | 10 | 964.6 |
| 20260906025454 | 8 | 168 | 3.2 | 12.9 | 0.00 | 0.00 | 0.00 | 10 | 964.6 |
| 20260906024954 | 7 | 190 | 3.2 | 12.9 | 0.00 | 0.00 | 0.00 | 10 | 964.6 |
| 20260906024454 | 8 | 188 | 3.2 | 11.3 | 0.00 | 0.00 | 0.00 | 99 | 964.5 |
| 20260906023954 | 8 | 90 | 3.2 | 11.3 | 0.00 | 0.00 | 0.00 | 99 | 964.5 |
| 20260906023454 | 8 | 39 | 3.2 | 9.7 | 0.00 | 0.00 | 0.00 | 99 | 964.4 |
| 20260906022954 | 8 | 91 | 4.8 | 14.5 | 0.00 | 0.00 | 0.00 | 99 | 964.5 |
| 20260906022454 | 8 | 105 | 4.8 | 16.1 | 0.00 | 0.00 | 0.00 | 99 | 964.5 |
| 20260906021954 | 8 | 184 | 4.8 | 16.1 | 0.00 | 0.00 | 0.00 | 99 | 964.2 |
| 20260906021454 | 8 | 229 | 4.8 | 22.5 | 0.00 | 0.00 | 0.00 | 99 | 964.1 |
| 20260906020954 | 8 | 210 | 4.8 | 22.5 | 0.00 | 0.00 | 0.00 | 99 | 964.0 |
| 20260906020454 | 8 | 245 | 4.8 | 14.5 | 0.00 | 0.00 | 0.00 | 99 | 964.1 |
| 20260906015954 | 8 | 144 | 3.2 | 12.9 | 0.00 | 0.00 | 0.00 | 10 | 964.1 |
| 20260906015454 | 8 | 19 | 3.2 | 12.9 | 0.00 | 0.00 | 0.00 | 10 | 964.1 |
| 20260906014953 | 8 | 260 | 3.2 | 9.7 | 0.00 | 0.00 | 0.00 | 10 | 964.0 |
| 20260906014453 | 8 | 248 | 3.2 | 11.3 | 0.00 | 0.00 | 0.00 | 10 | 964.0 |
| 20260906013953 | 8 | 173 | 3.2 | 14.5 | 0.00 | 0.00 | 0.00 | 10 | 964.0 |
| 20260906013453 | 8 | 108 | 3.2 | 14.5 | 0.00 | 0.00 | 0.00 | 10 | 964.0 |
| 20260906012953 | 8 | 27 | 3.2 | 11.3 | 0.00 | 0.00 | 0.00 | 10 | 964.0 |
| 20260906012453 | 8 | 97 | 3.2 | 14.5 | 0.00 | 0.00 | 0.00 | 10 | 964.0 |
| 20260906011953 | 8 | 102 | 3.2 | 14.5 | 0.00 | 0.00 | 0.00 | 10 | 964.0 |
| 20260906011453 | 8 | 92 | 3.2 | 12.9 | 0.00 | 0.00 | 0.00 | 10 | 963.9 |
| 20260906010953 | 8 | 90 | 3.2 | 14.5 | 0.00 | 0.00 | 0.00 | 10 | 963.9 |
| 20260906010453 | 8 | 29 | 4.8 | 17.7 | 0.00 | 0.00 | 0.00 | 10 | 963.8 |
| 20260906005953 | 8 | 114 | 4.8 | 17.7 | 0.00 | 0.00 | 0.00 | 99 | 963.9 |
| 20260906005453 | 8 | 120 | 4.8 | 17.7 | 0.00 | 0.00 | 0.00 | 99 | 963.9 |
| 20260906004953 | 8 | 89 | 3.2 | 12.9 | 0.00 | 0.00 | 0.00 | 10 | 963.8 |
| 20260906004453 | 9 | 240 | 4.8 | 17.7 | 0.00 | 0.00 | 0.00 | 99 | 963.9 |
| 20260906003953 | 9 | 84 | 4.8 | 17.7 | 0.00 | 0.00 | 0.00 | 10 | 963.8 |
| 20260906003453 | 9 | 136 | 4.8 | 17.7 | 0.00 | 0.00 | 0.00 | 10 | 963.7 |
| 20260906002953 | 9 | 142 | 4.8 | 16.1 | 0.00 | 0.00 | 0.00 | 10 | 963.6 |
| 20260906002453 | 9 | 183 | 4.8 | 17.7 | 0.00 | 0.00 | 0.00 | 10 | 963.6 |
| 20260906001952 | 9 | 247 | 4.8 | 17.7 | 0.00 | 0.00 | 0.00 | 10 | 963.5 |
| 20260906001452 | 9 | 87 | 4.8 | 14.5 | 0.00 | 0.00 | 0.00 | 10 | 963.5 |
| 20260906000952 | 9 | 171 | 4.8 | 14.5 | 0.00 | 0.00 | 0.00 | 10 | 963.6 |
| 20260906000452 | 9 | 159 | 4.8 | 17.7 | 0.00 | 0.00 | 0.00 | 10 | 963.5 |
| 20260905235952 | 9 | 133 | 6.4 | 20.9 | 0.00 | 0.00 | 0.00 | 99 | 963.4 |
| 20260905235452 | 9 | 160 | 6.4 | 20.9 | 0.00 | 0.00 | 0.00 | 99 | 963.3 |
| 20260905234952 | 9 | 237 | 4.8 | 19.3 | 0.00 | 0.00 | 0.00 | 10 | 963.2 |
| 20260905234452 | 9 | 212 | 4.8 | 19.3 | 0.00 | 0.00 | 0.00 | 10 | 963.1 |
| 20260905233952 | 9 | 87 | 4.8 | 16.1 | 0.00 | 0.00 | 0.00 | 10 | 963.1 |
| 20260905233422 | 9 | 81 | 4.8 | 17.7 | 0.00 | 0.00 | 0.00 | 10 | 963.0 |
| 20260905232922 | 9 | 79 | 4.8 | 19.3 | 0.00 | 0.00 | 0.00 | 10 | 963.1 |
| 20260905232422 | 9 | 63 | 4.8 | 19.3 | 0.00 | 0.00 | 0.00 | 10 | 963.0 |
| 20260905231922 | 9 | 156 | 4.8 | 19.3 | 0.00 | 0.00 | 0.00 | 10 | 963.0 |
| 20260905231421 | 9 | 105 | 4.8 | 14.5 | 0.00 | 0.00 | 0.00 | 10 | 962.8 |
| 20260905230921 | 9 | 66 | 4.8 | 16.1 | 0.00 | 0.00 | 0.00 | 99 | 962.8 |
| 20260905230421 | 10 | 275 | 4.8 | 16.1 | 0.00 | 0.00 | 0.00 | 99 | 962.8 |
| 20260905225921 | 10 | 103 | 4.8 | 14.5 | 0.00 | 0.00 | 0.00 | 99 | 962.7 |
| 20260905225421 | 10 | 165 | 4.8 | 14.5 | 0.00 | 0.00 | 0.00 | 99 | 962.6 |
| 20260905224921 | 10 | 128 | 4.8 | 14.5 | 0.00 | 0.00 | 0.00 | 99 | 962.6 |
| 20260905224421 | 10 | 144 | 4.8 | 17.7 | 0.00 | 0.00 | 0.00 | 99 | 962.5 |
| 20260905223921 | 10 | 4 | 6.4 | 19.3 | 0.00 | 0.00 | 0.00 | 98 | 962.5 |
| 20260905223421 | 10 | 227 | 6.4 | 19.3 | 0.00 | 0.00 | 0.00 | 98 | 962.4 |
| 20260905222921 | 10 | 159 | 8.0 | 19.3 | 0.00 | 0.00 | 0.00 | 98 | 962.4 |
| 20260905222421 | 10 | 221 | 8.0 | 19.3 | 0.00 | 0.00 | 0.00 | 98 | 962.2 |
| 20260905221921 | 10 | 99 | 6.4 | 17.7 | 0.00 | 0.00 | 0.00 | 98 | 962.2 |
| 20260905221421 | 10 | 189 | 6.4 | 19.3 | 0.00 | 0.00 | 0.00 | 98 | 962.2 |
| 20260905220921 | 10 | 233 | 8.0 | 19.3 | 0.00 | 0.00 | 0.00 | 98 | 962.0 |
| 20260905220420 | 10 | 237 | 8.0 | 19.3 | 0.00 | 0.00 | 0.00 | 98 | 962.0 |
| 20260905215920 | 10 | 223 | 6.4 | 22.5 | 0.00 | 0.00 | 0.00 | 99 | 961.8 |
| 20260905215420 | 10 | 202 | 6.4 | 22.5 | 0.00 | 0.00 | 0.00 | 99 | 961.8 |
| 20260905214920 | 10 | 258 | 6.4 | 16.1 | 0.00 | 0.00 | 0.00 | 10 | 961.8 |
| 20260905214420 | 11 | 222 | 6.4 | 16.1 | 0.00 | 0.00 | 0.00 | 99 | 961.8 |
| 20260905213920 | 11 | 201 | 4.8 | 16.1 | 0.00 | 0.00 | 0.00 | 99 | 961.7 |
| 20260905213420 | 11 | 326 | 3.2 | 16.1 | 0.00 | 0.00 | 0.00 | 99 | 961.6 |
| 20260905212850 | 10 | 74 | 3.2 | 9.7 | 0.00 | 0.00 | 0.00 | 99 | 961.5 |
| 20260905212350 | 10 | 78 | 3.2 | 9.7 | 0.00 | 0.00 | 0.00 | 99 | 961.4 |
| 20260905211850 | 10 | 228 | 3.2 | 12.9 | 0.00 | 0.00 | 0.00 | 98 | 961.4 |
| 20260905211350 | 10 | 90 | 3.2 | 12.9 | 0.00 | 0.00 | 0.00 | 99 | 961.4 |
| 20260905210850 | 10 | 127 | 3.2 | 11.3 | 0.00 | 0.00 | 0.00 | 99 | 961.3 |
| 20260905210350 | 10 | 70 | 3.2 | 11.3 | 0.00 | 0.00 | 0.00 | 98 | 961.2 |
| 20260905205850 | 10 | 107 | 3.2 | 8.0 | 0.00 | 0.00 | 0.00 | 98 | 961.0 |
| 20260905205350 | 10 | 90 | 3.2 | 14.5 | 0.00 | 0.00 | 0.00 | 98 | 960.9 |
| 20260905204849 | 10 | 32 | 4.8 | 14.5 | 0.00 | 0.00 | 0.00 | 98 | 960.9 |
| 20260905204349 | 10 | 94 | 4.8 | 12.9 | 0.00 | 0.00 | 0.00 | 98 | 961.0 |
| 20260905203849 | 10 | 112 | 4.8 | 11.3 | 0.00 | 0.00 | 0.00 | 98 | 961.0 |
| 20260905203349 | 11 | 233 | 3.2 | 11.3 | 0.00 | 0.00 | 0.00 | 98 | 960.9 |
| 20260905202849 | 11 | 123 | 3.2 | 11.3 | 0.00 | 0.00 | 0.00 | 98 | 960.9 |
| 20260905202349 | 11 | 83 | 3.2 | 14.5 | 0.00 | 0.00 | 0.00 | 98 | 960.9 |
| 20260905201849 | 11 | 311 | 3.2 | 14.5 | 0.00 | 0.00 | 0.00 | 98 | 960.7 |
| 20260905201349 | 11 | 251 | 3.2 | 14.5 | 0.00 | 0.00 | 0.00 | 98 | 960.7 |
| 20260905200849 | 11 | 273 | 3.2 | 9.7 | 0.00 | 0.00 | 0.00 | 98 | 960.7 |
| 20260905200349 | 11 | 182 | 4.8 | 11.3 | 0.00 | 0.00 | 0.00 | 98 | 960.7 |
| 20260905195849 | 11 | 236 | 6.4 | 11.3 | 0.00 | 0.00 | 0.00 | 98 | 960.6 |
| 20260905195349 | 11 | 237 | 6.4 | 12.9 | 0.00 | 0.00 | 0.00 | 97 | 960.5 |
| 20260905194849 | 11 | 236 | 8.0 | 12.9 | 0.00 | 0.00 | 0.00 | 96 | 960.5 |